Regional Weather Roundup
Issued by NWS

Home | Current Version | Previous Version | Text Only | Print | Product List | Glossary Off
Versions: 1 2 3 4 5 6 7 8 9 10 11 12 13 14 15 16 17 18 19 20 21 22 23 24 25 26 27 28 29 30 31 32 33 34 35 36 37 38 39 40 41 42 43 44 45 46 47 48 49 50

000
ASUS45 KCYS 041810
RWRWY

WYOMING REGIONAL WEATHER ROUNDUP
NATIONAL WEATHER SERVICE CHEYENNE WY
1200 PM MDT TUE AUG 04 2015

NOTE:  "FAIR" INDICATES FEW OR NO CLOUDS BELOW 12,000 FEET
WITH NO SIGNIFICANT WEATHER AND/OR OBSTRUCTIONS TO VISIBILITY.

WYZ001-041900-
YELLOWSTONE NATIONAL PARK

CITY           SKY/WX    TMP DP  RH WIND       PRES   REMARKS
LK YELLOWSTONE   N/A     59  50  72 VRB6      30.29F
6HR MIN TEMP:  47; 6HR MAX TEMP:  59;

W YELLOWSTONE  NOT AVBL

$$
WYZ002>013-054>058-071-098>099-041900-
NORTHERN WYOMING

CITY           SKY/WX    TMP DP  RH WIND       PRES   REMARKS
JACKSON        MOSUNNY   66  54  63 CALM      30.22F
CODY           CLOUDY    70  50  49 NW10      30.10R
GREYBULL       PTSUNNY   74  53  48 NE5       29.99S
6HR MIN TEMP:  63; 6HR MAX TEMP:  75;

WORLAND        FAIR      78  52  40 N9        30.01R
6HR MIN TEMP:  62; 6HR MAX TEMP:  78;

SHERIDAN       FAIR      76  52  43 NW14      29.98R
6HR MIN TEMP:  60; 6HR MAX TEMP:  78;

BUFFALO        FAIR      77  52  41 N15G26    30.02S
6HR MIN TEMP:  60; 6HR MAX TEMP:  80;

GILLETTE       FAIR      79  55  43 S6        29.98S
6HR MIN TEMP:  58; 6HR MAX TEMP:  79;

HULETT         FAIR      79  57  47 W5        29.98S
NEWCASTLE      FAIR      73  55  53 SE5       30.00S

$$
WYZ014>020-022>026-101>103-041900-
CENTRAL WYOMING

CITY           SKY/WX    TMP DP  RH WIND       PRES   REMARKS
BIG PINEY      FAIR      72  45  37 N16       30.25R
6HR MIN TEMP:  51; 6HR MAX TEMP:  72;

PINEDALE       FAIR      68  46  45 N14G23    30.26R
DUBOIS         MOCLDY    64  45  48 NW20G26   30.22S
LANDER         PTSUNNY   73  53  49 CALM      30.09S
6HR MIN TEMP:  57; 6HR MAX TEMP:  76;

RIVERTON       FAIR      79  47  32 NW14      30.09S
6HR MIN TEMP:  58; 6HR MAX TEMP:  79;

CASPER         PTSUNNY   72  54  53 SW10      30.06S
6HR MIN TEMP:  61; 6HR MAX TEMP:  73;

DOUGLAS        CLOUDY    74  50  42 CALM      30.03S
6HR MIN TEMP:  55; 6HR MAX TEMP:  77;


$$
WYZ021-027>030-104>119-041900-
SOUTHERN WYOMING

CITY           SKY/WX    TMP DP  RH WIND       PRES   REMARKS
EVANSTON         N/A     70  47  43 SW12      30.30R
6HR MIN TEMP:  48; 6HR MAX TEMP:  70;

KEMMERER       FAIR      68  46  45 W12       30.30S
FORT BRIDGER   CLEAR     72  48  43 W10G20    30.31S
ROCK SPRINGS   FAIR      71  48  43 W14G22    30.24S
6HR MIN TEMP:  51; 6HR MAX TEMP:  71;

DIXON          CLOUDY    70  45  40 W14G23    30.26R
RAWLINS        CLOUDY    70  50  49 W25       30.20R
6HR MIN TEMP:  54; 6HR MAX TEMP:  70; 6HR PCP:  0.01;

SARATOGA       MOCLDY    64  46  52 W24G36    30.23S
LARAMIE        CLOUDY    64  48  56 W21G30    30.21S
6HR MIN TEMP:  54; 6HR MAX TEMP:  66;

CHEYENNE       CLOUDY    71  47  42 W20G26    30.13S
6HR MIN TEMP:  57; 6HR MAX TEMP:  71; 6HR PCP:  0.02;

TORRINGTON     PTSUNNY   79  53  40 SW12      29.98S
6HR MIN TEMP:  59; 6HR MAX TEMP:  81;

PINE BLUFFS    CLOUDY    73  46  38 W15G22    30.07F

$$



USA.gov is the U.S. government's official web portal to all federal, state and local government web resources and services.